Find Starlink 31546

NORAD ID: 59470 Int'l Des: 2024-068 Owner: SPXS Country: US Constellation: starlink operational
LEOCIRCULAR

現在のビュー

3D地球を読み込み中...

About Starlink 31546

Starlink 31546 (NORAD 59470) is a starlink constellation satellite (v2 mini) launched Apr 10, 2024 by SPXS of US. It operates in LEO, CIRCULAR orbit with a mass of 730.00 kg.

次回通過

Passes for default location (London). Set your location on the main map for personalized predictions.

高度履歴

Loading altitude history...

軌道要素

1 59470U 24068R 26263.33943627 .00000014 00000-0 10019-4 0 9991
2 59470 43.0043 11.6262 0001108 277.1843 82.8883 15.27577076138333
Epoch: Sep 20, 2026 • Age: 20 hours

現在のステータス

高度 494.7 km
遠地点 / 近地点 N/A
速度 7.62 km/s
衛星直下点 -40.51°S, 168.57°W
打ち上げ日 Apr 10, 2024
運用期間 2.4 years
タイプ internet

技術仕様

分類 Payload
質量 730.00 kg
乾燥質量 700.00 kg
長さ 0.30 m
スパン 29.00 m
形状 ? Box + pan
製造者 SPXS
バスタイプ Starlink V2M
フェーズステータス In Orbit
所有者/国 SPXS/US

Most Searched